This is the latest recevied weather packets stored in our database for station/object SV9TNF-1. If no packets are shown the sender has not sent any weather packets the latest 10 day(s).
| Time | Temp. | Humidity | Pressure | Rain* | Wind** | Luminosity | Snow |
|---|---|---|---|---|---|---|---|
| 1777509579 | 17.22° C | 48% | 1003.7 hPa | 0 mm | 7.6 m/s, 357° | - | - |
| 1777509279 | 16.67° C | 49% | 1003.4 hPa | 0 mm | 7.15 m/s, 325° | - | - |
| 1777508979 | 16.67° C | 50% | 1003.4 hPa | 0 mm | 7.15 m/s, 344° | - | - |
| 1777508679 | 17.78° C | 49% | 1003.4 hPa | 0 mm | 4.92 m/s, 330° | - | - |
| 1777508378 | 17.78° C | 51% | 1003.4 hPa | 0 mm | 5.36 m/s, 335° | - | - |
| 1777508078 | 17.22° C | 53% | 1003.4 hPa | 0 mm | 4.92 m/s, 327° | - | - |
| 1777507778 | 17.22° C | 54% | 1003.4 hPa | 0 mm | 4.92 m/s, 332° | - | - |
| 1777507478 | 17.22° C | 56% | 1003.4 hPa | 0 mm | 6.26 m/s, 330° | - | - |
| 1777507178 | 16.67° C | 53% | 1003.7 hPa | 0 mm | 7.6 m/s, 345° | - | - |
| 1777506878 | 16.67° C | 51% | 1003.7 hPa | 0 mm | 4.92 m/s, 308° | - | - |
| 1777506578 | 16.11° C | 51% | 1003.7 hPa | 0 mm | 4.92 m/s, 348° | - | - |
| 1777506278 | 16.67° C | 59% | 1003.7 hPa | 0 mm | 5.81 m/s, 322° | - | - |
| 1777505978 | 16.67° C | 59% | 1003.7 hPa | 0 mm | 4.02 m/s, 321° | - | - |
| 1777505678 | 16.67° C | 59% | 1004.1 hPa | 0 mm | 6.26 m/s, 318° | - | - |
| 1777505378 | 17.22° C | 51% | 1004.1 hPa | 0 mm | 0 m/s | - | - |
| 1777505078 | 17.78° C | 48% | 1004.1 hPa | 0 mm | 5.81 m/s, 348° | - | - |
| 1777504777 | 17.78° C | 47% | 1004.1 hPa | 0 mm | 6.71 m/s, 339° | - | - |
| 1777504478 | 17.78° C | 47% | 1004.1 hPa | 0 mm | 4.47 m/s, 354° | - | - |
| 1777504177 | 17.78° C | 47% | 1004.1 hPa | 0 mm | 2.68 m/s, 112° | - | - |
| 1777503877 | 16.67° C | 51% | 1004.1 hPa | 0 mm | 1.79 m/s, 123° | - | - |
| 1777503577 | 16.11° C | 60% | 1004.1 hPa | 0 mm | 0 m/s | - | - |
| 1777503277 | 16.11° C | 63% | 1004.1 hPa | 0 mm | 0.45 m/s, 131° | - | - |
| 1777502977 | 16.11° C | 65% | 1004.1 hPa | 0 mm | 0 m/s | - | - |
| 1777502676 | 16.11° C | 70% | 1004.1 hPa | 0 mm | 0 m/s | - | - |
| 1777502377 | 16.67° C | 74% | 1004.1 hPa | 0 mm | 0 m/s | - | - |
* Rain latest hour (hover to see other rain measurements)
** Current wind speed in m/s (hover to see current wind gust speed)